[[{"header":{"parameterUnit":"m.s-1","parameterCategory":1,"la1":30.2991,"la2":30.254,"lo1":-89.0895,"lo2":-89.0444,"dy":0.0017,"dx":0.0017,"nx":28,"ny":28,"refTime":"2023-08-28T03:00:00:Z","depth":0,"parameterNumber":2,"parameterNumberName":"U-component_of_WINDS"},"data":[0,0,0,0,0,0,0,0,0,0,0,0,0,0,0,0,0,0,0,0,0,0,0,0,0,0,0,0,0,0,0,0,0,0,0,0,0,0,0,0,0,0,0,0,0,0,0,0,0,0,0,0,0,0,0,0,0,0,1.986,1.9861,0,1.9989,1.999,1.9992,2.0001,1.9999,1.9998,1.9997,2.0119,2.0123,2.0128,0,0,0,0,0,0,0,0,0,0,0,0,0,1.961,1.9614,1.986,1.9861,1.9863,1.9989,1.999,1.9992,2.0001,1.9999,1.9998,1.9996,2.0117,2.0123,2.0128,0,0,0,0,0,0,0,0,0,0,0,0,0,1.9726,1.9616,1.9859,1.9883,1.9886,1.9988,1.999,1.9993,2.0001,1.9999,1.9997,1.9995,2.0116,2.0122,2.0129,2.0213,0,0,2.015,2.0153,0,0,0,0,0,0,0,0,1.972,1.9735,1.9878,1.9881,1.9885,1.9977,1.9947,2.0066,2.0002,1.9957,1.9997,1.9994,2.0073,2.0083,2.0111,2.0219,2.0224,2.015,2.0155,2.0158,2.0159,0,0,0,0,0,0,0,1.9711,1.973,1.991,1.988,1.9884,1.9883,1.9897,1.997,2.0025,1.9961,1.9962,1.9978,2.0074,2.0105,2.0114,2.0226,2.015,2.0156,2.0161,2.0163,2.0406,2.0409,0,0,0,0,0,0,1.97,1.9723,1.9906,1.9914,1.9796,1.9889,1.9905,1.9949,2.0024,2.0034,1.998,1.9978,2.0094,2.0106,2.0119,2.0221,2.0157,2.0164,2.0168,2.0404,2.0407,2.0409,0,0,0,0,0,0,1.9695,1.9717,1.9901,1.9819,1.9843,1.9896,1.9945,1.9953,1.9984,2.0038,2.0047,2.0001,2.0093,2.0109,2.019,2.0226,2.0167,2.0173,2.0401,2.0405,2.0408,2.0428,0,0,0,0,0,0,1.9688,1.9715,1.975,1.982,1.9847,1.9974,1.9948,1.9957,1.9997,1.9996,2.0061,2.007,2.0093,2.018,2.0197,2.0234,2.0179,2.0398,2.0403,2.0407,2.0424,2.0431,2.0438,0,0,0,0,0,1.9679,1.9749,1.9752,1.9774,1.9893,1.9976,1.9991,2.0019,2.0,2.0034,2.0068,2.0068,2.0219,2.0188,2.0207,2.0247,2.0396,2.0402,2.0407,2.0421,2.043,2.0437,0,0,0,0,0,0,1.9678,1.9758,1.9763,1.9858,1.9911,1.9977,2.0022,2.0027,2.0084,2.008,2.0109,2.0123,2.0203,2.0233,2.0197,2.0331,2.0305,2.0314,2.0309,2.0318,2.0325,2.0316,2.0184,0,0,0,0,0,1.969,1.9755,1.9819,1.9897,1.9923,1.9968,2.0005,2.0022,2.0076,2.0097,2.0138,2.0187,2.0245,2.0283,2.034,2.0428,2.0441,2.0464,2.0471,2.0477,2.0484,2.0531,2.0541,2.0427,2.0427,2.0427,0,0,1.9713,1.9765,1.9803,1.9898,1.9941,2.0003,1.9986,2.0053,2.0099,2.0106,2.0186,2.0217,2.0273,2.0358,2.0397,2.0385,2.0519,2.0483,2.0487,2.0492,2.0537,2.0548,2.0557,2.043,2.043,2.0429,0,0,1.9788,1.9835,1.9904,1.9948,2.0013,2.0043,2.0059,2.0125,2.0147,2.0228,2.0234,2.0286,2.0387,2.0427,2.046,2.0548,2.0549,2.0566,2.0601,2.0646,2.0655,2.0663,2.0693,2.0704,2.0573,2.0573,2.0573,0,1.9808,1.9907,1.9938,2.0006,2.0046,2.0058,2.0126,2.0165,2.0244,2.027,2.0256,2.0383,2.0421,2.0515,2.0536,2.0563,2.058,2.0559,2.0652,2.066,2.0668,2.0697,2.0708,2.0575,2.0574,2.0574,2.0574,0,1.9927,1.9994,2.0042,2.0122,2.0167,2.0234,2.0272,2.0313,2.0325,2.0354,2.0435,2.0482,2.0548,2.0571,2.0583,2.0665,2.0656,2.0647,2.0621,2.068,2.0708,2.0719,2.0577,2.0576,2.0576,2.0575,0,0,2.0006,2.0103,2.0119,2.0155,2.0228,2.0279,2.0344,2.0412,2.0446,2.0499,2.0553,2.0638,2.063,2.0668,2.0683,2.0723,2.0787,2.0709,2.071,2.0721,2.0879,2.0885,2.0897,2.0788,2.079,2.0792,2.0873,0,2.0088,2.0211,2.024,2.0343,2.0405,2.0416,2.0473,2.0521,2.055,2.0603,2.0632,2.0691,2.0677,2.07,2.0739,2.0771,2.0819,2.0766,2.0836,2.0838,2.0821,2.0912,2.0919,2.0994,2.0885,2.0886,2.0888,0,2.0201,2.0261,2.0371,2.0435,2.0461,2.0513,2.0576,2.0628,2.0681,2.0699,2.0741,2.0752,2.0817,2.0788,2.0876,2.0839,2.0869,2.0889,2.0892,2.0899,2.0866,2.0921,2.1018,2.1029,2.0905,2.0904,2.0903,0,2.0247,2.0354,2.0434,2.0464,2.054,2.0576,2.0608,2.066,2.0699,2.0752,2.0777,2.0836,2.0868,2.0912,2.0938,2.0915,2.1023,2.0997,2.1037,2.1036,2.1059,2.1057,2.1162,2.1079,2.1079,2.1079,2.1079,0,2.0335,2.0402,2.0455,2.0504,2.0578,2.0609,2.0679,2.0711,2.0757,2.0809,2.0821,2.0869,2.0901,2.0952,2.0971,2.104,2.1055,2.1068,2.1073,2.1067,2.1065,2.1087,2.1082,2.1082,2.1081,2.1081,2.108,0,2.0399,2.0437,2.0525,2.0591,2.0608,2.066,2.0714,2.0759,2.0788,2.0854,2.087,2.0914,2.0974,2.1005,2.1079,2.1092,2.117,2.1171,2.1153,2.1154,2.1193,2.1188,2.1315,2.1332,2.1238,2.1239,2.124,0,2.0453,2.0505,2.0577,2.0615,2.0649,2.0709,2.0749,2.078,2.082,2.0885,2.0922,2.0984,2.1035,2.1131,2.1166,2.1223,2.1225,2.1265,2.1233,2.1226,2.1224,2.1221,2.1225,2.1271,2.1272,2.1272,2.1273,0,2.0544,2.0561,2.062,2.0685,2.0733,2.0785,2.0836,2.0865,2.0903,2.0947,2.1011,2.1051,2.1128,2.1188,2.1247,2.1276,2.128,2.1283,2.1295,2.129,2.1277,2.1283,2.1168,2.128,2.1279,2.1279,2.1278,2.1278,2.0604,2.065,2.0709,2.0773,2.0815,2.0862,2.0908,2.0943,2.0999,2.1066,2.108,2.1147,2.1196,2.1276,2.1307,2.1358,2.1348,2.1366,2.137,2.1374,2.1376,2.1269,2.1368,2.1368,2.1368,2.1368,2.1368,0,2.0695,2.0733,2.0793,2.0865,2.0915,2.0917,2.0973,2.1013,2.1074,2.1121,2.1172,2.1244,2.1302,2.1343,2.1401,2.1433,2.1436,2.1447,2.1445,2.1451,2.1381,2.1365,2.1444,2.1444,2.1444,2.1444,2.1444,2.1444,2.0748,2.0827,2.085,2.0947,2.0984,2.1053,2.1084,2.1126,2.1164,2.1246,2.1296,2.1323,2.1366,2.1427,2.1479,2.1489,2.1509,2.152,2.153,2.1464,2.1456,2.1448,2.1433,2.1525,2.1525,2.1595,2.1596,2.1596]},{"header":{"parameterUnit":"m.s-1","parameterCategory":1,"la1":30.2991,"la2":30.254,"lo1":-89.0895,"lo2":-89.0444,"dy":0.0017,"dx":0.0017,"nx":28,"ny":28,"refTime":"2023-08-28T03:00:00:Z","depth":0,"parameterNumber":3,"parameterNumberName":"V-component_of_WINDS"},"data":[0,0,0,0,0,0,0,0,0,0,0,0,0,0,0,0,0,0,0,0,0,0,0,0,0,0,0,0,0,0,0,0,0,0,0,0,0,0,0,0,0,0,0,0,0,0,0,0,0,0,0,0,0,0,0,0,0,0,1.2687,1.2686,0,1.2544,1.2542,1.254,1.2486,1.2486,1.2487,1.2487,1.2334,1.2329,1.2325,0,0,0,0,0,0,0,0,0,0,0,0,0,1.2908,1.2904,1.2687,1.2685,1.2684,1.2544,1.2542,1.254,1.2486,1.2486,1.2487,1.2487,1.2335,1.233,1.2324,0,0,0,0,0,0,0,0,0,0,0,0,0,1.2793,1.2903,1.2688,1.264,1.2634,1.2544,1.2542,1.2539,1.2486,1.2486,1.2487,1.2488,1.2337,1.233,1.2324,1.2269,0,0,1.2303,1.23,0,0,0,0,0,0,0,0,1.28,1.2785,1.2649,1.2643,1.2636,1.2534,1.2564,1.2448,1.2485,1.2542,1.2487,1.2488,1.2399,1.2387,1.2359,1.2261,1.2255,1.2302,1.2298,1.2295,1.2293,0,0,0,0,0,0,0,1.2808,1.2791,1.263,1.2647,1.2639,1.2624,1.2608,1.2541,1.2468,1.2537,1.2533,1.2517,1.2396,1.2365,1.2355,1.2253,1.2303,1.2297,1.2292,1.229,1.2103,1.2103,0,0,0,0,0,0,1.2825,1.2798,1.2635,1.2626,1.2722,1.2619,1.2602,1.2566,1.2469,1.2455,1.2516,1.2515,1.2377,1.2363,1.2349,1.2278,1.2295,1.2289,1.2285,1.2104,1.2103,1.2102,0,0,0,0,0,0,1.2829,1.2811,1.2641,1.2711,1.2688,1.2615,1.2575,1.2563,1.2532,1.2453,1.2439,1.2499,1.2377,1.2359,1.229,1.2272,1.2286,1.228,1.2105,1.2104,1.2103,1.2137,0,0,0,0,0,0,1.2836,1.2813,1.2792,1.2711,1.2684,1.2585,1.2574,1.2559,1.2521,1.2518,1.2433,1.242,1.2376,1.23,1.2283,1.2263,1.2275,1.2107,1.2105,1.2103,1.2137,1.2137,1.2137,0,0,0,0,0,1.2844,1.2806,1.2791,1.2772,1.2658,1.2584,1.2569,1.2521,1.252,1.2498,1.2448,1.2423,1.2278,1.2293,1.2274,1.2252,1.2107,1.2105,1.2103,1.2137,1.2137,1.2137,0,0,0,0,0,0,1.2884,1.2794,1.2777,1.2712,1.2657,1.2575,1.2546,1.2522,1.2464,1.2463,1.2403,1.2384,1.232,1.2279,1.2298,1.2194,1.2191,1.2185,1.2223,1.2222,1.2222,1.2233,1.2269,0,0,0,0,0,1.2886,1.2836,1.2759,1.2709,1.2682,1.2619,1.2585,1.2553,1.2493,1.2468,1.2413,1.2353,1.2294,1.2256,1.2197,1.2131,1.2112,1.2107,1.2107,1.2107,1.2102,1.2064,1.2061,1.2096,1.2096,1.2096,0,0,1.2887,1.2832,1.2804,1.2715,1.2669,1.2617,1.26,1.2545,1.2505,1.2459,1.2391,1.2349,1.2278,1.2211,1.2178,1.2174,1.2089,1.2105,1.2105,1.21,1.2062,1.2059,1.2056,1.2094,1.2095,1.2095,0,0,1.2864,1.2818,1.2772,1.2726,1.2657,1.2616,1.2605,1.2527,1.2498,1.243,1.2394,1.2345,1.2245,1.2196,1.2158,1.212,1.2094,1.2102,1.2101,1.2065,1.2063,1.206,1.2046,1.2041,1.2098,1.2098,1.2098,0,1.2875,1.2797,1.275,1.2698,1.266,1.2619,1.257,1.2527,1.2442,1.2415,1.2413,1.2287,1.2237,1.2158,1.2149,1.212,1.2104,1.2111,1.2067,1.2064,1.2061,1.2046,1.2041,1.2099,1.2099,1.2099,1.2099,0,1.2813,1.276,1.273,1.2651,1.261,1.256,1.2504,1.2467,1.2439,1.2398,1.2329,1.2267,1.2196,1.2175,1.2146,1.2092,1.2092,1.2079,1.2074,1.206,1.2045,1.2039,1.2101,1.2101,1.21,1.21,0,0,1.2808,1.2707,1.2697,1.2661,1.2583,1.2539,1.2487,1.242,1.239,1.2332,1.2286,1.2204,1.2192,1.2149,1.2115,1.2083,1.2057,1.2074,1.2072,1.2073,1.1993,1.2002,1.1997,1.204,1.2039,1.2038,1.1999,0,1.2774,1.2682,1.2639,1.2565,1.2515,1.2476,1.2431,1.2377,1.2338,1.2288,1.2243,1.2185,1.2175,1.2149,1.2116,1.2067,1.2039,1.2069,1.1995,1.1993,1.2013,1.1989,1.1998,1.1964,1.1993,1.1992,1.1991,0,1.2722,1.2668,1.259,1.2519,1.2496,1.2456,1.2392,1.2345,1.2283,1.2257,1.2211,1.2178,1.212,1.2121,1.2041,1.2062,1.2029,1.2001,1.1998,1.1988,1.199,1.1978,1.1952,1.1947,1.1982,1.1982,1.1983,0,1.2726,1.2634,1.2575,1.2546,1.2462,1.2435,1.2398,1.2337,1.23,1.2243,1.2218,1.2154,1.2119,1.207,1.202,1.2026,1.1945,1.1941,1.1919,1.1921,1.1903,1.1904,1.1871,1.1884,1.1884,1.1884,1.1884,0,1.2692,1.2645,1.2576,1.254,1.2487,1.2438,1.2385,1.2345,1.2292,1.2246,1.2209,1.2166,1.2104,1.2053,1.2014,1.1953,1.1938,1.1913,1.1903,1.1916,1.1919,1.1893,1.1893,1.1882,1.1883,1.1883,1.1883,0,1.2687,1.2639,1.2572,1.25,1.248,1.2444,1.2381,1.2343,1.2303,1.2246,1.2229,1.2165,1.2104,1.2051,1.1968,1.1942,1.188,1.1868,1.1901,1.1896,1.1877,1.1879,1.1824,1.1814,1.1835,1.1835,1.1835,0,1.2667,1.2631,1.2556,1.2524,1.2489,1.2437,1.24,1.235,1.2313,1.2241,1.2212,1.2149,1.2095,1.1999,1.1944,1.1881,1.1867,1.1852,1.1857,1.1871,1.1866,1.1868,1.1864,1.1851,1.1852,1.1852,1.1852,0,1.2638,1.2617,1.2566,1.2508,1.2465,1.2415,1.2364,1.234,1.2281,1.224,1.2178,1.2137,1.2056,1.1993,1.1924,1.1884,1.1857,1.1851,1.1842,1.1854,1.1875,1.1863,1.19,1.1852,1.1852,1.1852,1.1852,1.1852,1.2625,1.2591,1.2534,1.2478,1.2436,1.239,1.2352,1.2308,1.2257,1.2188,1.2161,1.2098,1.2038,1.1944,1.1904,1.1853,1.1849,1.1836,1.1833,1.1831,1.1833,1.1885,1.1841,1.1841,1.184,1.184,1.184,0,1.2593,1.2555,1.2505,1.2437,1.2393,1.2376,1.2319,1.2283,1.2229,1.2176,1.2125,1.2054,1.1994,1.1935,1.1871,1.1842,1.1828,1.1827,1.1827,1.1819,1.1841,1.1854,1.1839,1.1839,1.1839,1.1839,1.1839,1.1839,1.2571,1.2514,1.2486,1.2407,1.2369,1.2309,1.2278,1.2235,1.2193,1.2117,1.2067,1.2031,1.1975,1.1907,1.1851,1.1835,1.1812,1.1814,1.1795,1.1816,1.1817,1.1818,1.183,1.181,1.181,1.1777,1.1777,1.1777]}]]